sat.trackr.live / text

‹ back to catalog

YAOGAN-43 02B

NORAD 60946 · 2024-156B

PAYLOAD ACTIVE UNKNOWN

§ Identity

Operator
Country
PRC
Launch date
2024-09-03
Launch site
XICLF
Launch vehicle
Mass (kg)
RCS (m²)

External: N2YO · Heavens-Above · Gunter

§ Orbital elements

Epoch: 2026-09-22T18:55:09.125184Z

Period
94.55 min
Inclination
34.9955°
Eccentricity
0.0001119
Mean motion
15.23082238 rev/d
Perigee alt
495.8 km
Apogee alt
497.3 km
Semi-major
6,874.7 km
B*
2.5922e-4
RAAN
304.1780°
Arg perigee
260.1875°
Mean anomaly
99.8713°
Rev number
11,433

§ Raw data

YAOGAN-43 02B1 60946U 24156B   26265.78830006  .00006228  00000+0  25922-3 0  99962 60946  34.9955 304.1780 0001119 260.1875  99.8713 15.23082238114339

JSON: /api/v1/satellites/60946 · /tle

For live sub-satellite position, see the globe view (requires WebGL).

§ Visibility from observer

Set your observer location to see the next 7 days of passes ≥ 10°. The values pass through the URL so the page stays shareable.

No JS? Fill the form by hand. The geolocation button needs JavaScript.